Tetuan, Morocco

9:47 AM WET on June 27, 2017 (GMT +0000)
Tetuan

Weather History for GMTN - November, 2012

Change the Weather History Date:

Thursday, November 1, 2012

  Actual Average Record
Temperature  
Mean Temperature 68 °F -  
Max Temperature 73 °F 66 °F 82 °F (2006)
Min Temperature 62 °F 55 °F 50 °F (2013)
Cooling Degree Days 2    
Growing Degree Days 18 (Base 50)    
Moisture  
Dew Point 61 °F    
Average Humidity 83    
Maximum Humidity 94    
Minimum Humidity 60    
Precipitation  
Precipitation 0.24 in - - ()
Sea Level Pressure  
Sea Level Pressure 29.77 in    
Wind  
Wind Speed 6 mph ()    
Max Wind Speed 16 mph    
Max Gust Speed -    
Visibility 5.5 miles    
Events Rain    
Averages and records for this station are not official NWS values.
T = Trace of Precipitation, MM = Missing Value Source: Averaged Metar Reports

Daily Weather History Graph

Daily Weather History Graph

Search for Another Location

Airport or City:

Trip Planner

Search our weather history database for the weather conditions in past years. The results will help you decide how hot, cold, wet, or windy it might be!

Date:

Astronomy

Nov. 01, 2012 Rise Set
Actual Time 6:43 AM WET 5:25 PM WET
Civil Twilight 6:17 AM WET 5:52 PM WET
Nautical Twilight 5:46 AM WET 6:22 PM WET
Astronomical Twilight 5:17 AM WET 6:52 PM WET
Moon 7:16 PM WET (11/1) 9:00 AM WET (11/1)
Length of Visible Light 11h 35m
Length of Day
10h 42m
Waning Gibbous, 94% of the Moon is Illuminated
Nov 1
Waning Gibbous
Nov 7
Last Quarter
Nov 13
New
Nov 20
First Quarter
Nov 28
Full

Hourly Weather History & Observations

Time (WET) Temp. Dew Point Humidity Pressure Visibility Wind Dir Wind Speed Gust Speed Precip Events Conditions
12:00 AM 63 °F 58 °F 80% 29.68 in 6 mi South 3.5 mph - -  
12:00 AM 62.6 °F 59.0 °F 88% 29.65 in 2.8 mi South 3.5 mph - N/A   Unknown
1:00 AM 64.4 °F 59.0 °F 83% 29.65 in 6.2 mi ESE 5.8 mph - N/A   Unknown
2:00 AM 62.6 °F 59.0 °F 88% 29.65 in 6.2 mi North 4.6 mph - N/A   Unknown
3:00 AM 63 °F 61 °F 89% 29.65 in 4 mi East 4.6 mph - -  
3:00 AM 62.6 °F 60.8 °F 94% 29.62 in 4.3 mi East 4.6 mph - N/A   Unknown
4:00 AM 62.6 °F 60.8 °F 94% 29.62 in 5.0 mi NE 5.8 mph - N/A   Unknown
5:00 AM 62.6 °F 60.8 °F 94% 29.65 in 6.2 mi ENE 5.8 mph - N/A   Unknown
6:00 AM 63 °F 61 °F 91% 29.67 in 6 mi East 4.6 mph - -  
6:00 AM 62.6 °F 60.8 °F 94% 29.65 in 4.3 mi East 4.6 mph - N/A   Mostly Cloudy
7:00 AM 62.6 °F 60.8 °F 94% 29.65 in 4.3 mi Variable 1.2 mph - N/A Rain Light Rain Showers
8:00 AM 64.4 °F 62.6 °F 94% 29.68 in 5.0 mi Variable 2.3 mph - N/A   Mostly Cloudy
9:00 AM 67 °F 64 °F 86% 29.73 in 5 mi East 3.5 mph - -   Mostly Cloudy
9:00 AM 68.0 °F 64.4 °F 88% 29.71 in 5.0 mi East 3.5 mph - N/A   Mostly Cloudy
10:00 AM 69.8 °F 64.4 °F 83% 29.74 in 5.0 mi WSW 11.5 mph - N/A Rain Rain Showers
11:00 AM 71.6 °F 64.4 °F 78% 29.77 in 5.0 mi WNW 13.8 mph - N/A   Mostly Cloudy
12:00 PM 68 °F 64 °F 84% 29.80 in 6 mi North 6.9 mph - -   Partly Cloudy
12:00 PM 68.0 °F 64.4 °F 88% 29.77 in 6.2 mi North 6.9 mph - N/A   Mostly Cloudy
1:00 PM 73.4 °F 62.6 °F 69% 29.80 in 6.2 mi West 11.5 mph - N/A   Mostly Cloudy
2:00 PM 71.6 °F 62.6 °F 73% 29.80 in 6.2 mi West 12.7 mph - N/A   Mostly Cloudy
3:00 PM 70 °F 59 °F 60% 29.84 in 6 mi West 13.8 mph - -   Mostly Cloudy
3:00 PM 69.8 °F 59.0 °F 68% 29.83 in 6.2 mi West 13.8 mph - N/A   Mostly Cloudy
4:00 PM 69.8 °F 59.0 °F 68% 29.86 in 6.2 mi West 15.0 mph - N/A   Mostly Cloudy
6:00 PM 68 °F 58 °F 64% 29.90 in 6 mi West 11.5 mph - -   Mostly Cloudy
6:00 PM 68.0 °F 59.0 °F 73% 29.89 in 6.2 mi West 11.5 mph - N/A   Mostly Cloudy
7:00 PM 66.2 °F 60.8 °F 83% 29.89 in 6.2 mi WNW 12.7 mph - N/A   Mostly Cloudy
8:00 PM 66.2 °F 60.8 °F 83% 29.92 in 4.3 mi West 13.8 mph - N/A Rain Light Rain Showers
9:00 PM 65 °F 61 °F 83% 29.96 in 6 mi West 13.8 mph - -   Light Freezing Rain
9:00 PM 64.4 °F 60.8 °F 88% 29.95 in 6.2 mi West 13.8 mph - N/A   Mostly Cloudy
10:00 PM 66.2 °F 60.8 °F 83% 29.95 in 6.2 mi West 13.8 mph - N/A   Mostly Cloudy
11:00 PM 66.2 °F 57.2 °F 73% 29.95 in 6.2 mi West 16.1 mph - N/A   Unknown